Powrót do katalogu

PAGEOS 1 DEB

LostPO
NORAD 9468·DEBRIS·🇺🇸 United States

Wystrzelony Jun 24, 1966 z Vandenberg Space Force Base

Loading…

Następne Przeloty (najbliższe 24 godziny)

TLE

NieaktualneSource: Space-Track

Epoka: May 31, 2026, 20:27 UTC

1 09468U 66056AH  26151.85217391  .00001390  00000-0  10300+1 0  9998
2 09468  85.5906 108.9526 0610461 319.3199  36.3508  8.04548365 64475

Śledź PAGEOS 1 DEB w czasie rzeczywistym z AllMySat

Download on the App Store